This demonstration page uses our WeatherBlox Daily Observations layout. Learn more.

Left ArrowRight Arrow

Hourly Observations for April 20, 2017

Temp ( °F °C ) Dew Point ( °F °C ) Humidity (%) Winds ( mph kmh ) Pressure ( in mb ) Visibility ( mi km ) Precip ( " mm )
12:53 am 00:53 Cloudy with Light Rain 51 10.6 49 9.4 92 92 W 6 9 30.19 1022 8 13 0.02 0.51
1:53 am 01:53 Cloudy 50 10 49 9.4 96 96 WNW 5 7 30.18 1022 10 16 0.02 0.51
2:53 am 02:53 Mostly Cloudy 50 10 49 9.4 96 96 Calm 30.19 1023 10 16 0.00 0.00
3:53 am 03:53 Cloudy 50 10 49 9.4 96 96 undefined N/A 30.21 1023 10 16 0.00 0.00
4:53 am 04:53 Cloudy 50 10 48 8.9 93 93 Calm 30.22 1023 10 16 0.00 0.00
5:45 am 05:45 Mostly Clear 47 8.3 47 8.3 100 100 N 6 9 30.21 1023 10 16 0.00 0.03
5:53 am 05:53 Clear 47 8.3 46 7.8 97 97 N 5 7 30.22 1024 10 16 0.00 0.03
6:53 am 06:53 Sunny 46 7.8 45 7.2 96 96 Calm 30.24 1024 10 16 0.00 0.00
7:53 am 07:53 Sunny 51 10.6 48 8.9 89 89 Calm 30.27 1025 10 16 0.00 0.00
8:53 am 08:53 Partly Cloudy 55 12.8 49 9.4 80 80 NE 6 9 30.28 1026 10 16 0.00 0.00
9:53 am 09:53 Sunny 58 14.4 46 7.8 65 65 Calm 30.29 1026 10 16 0.00 0.00
10:53 am 10:53 Sunny 61 16.1 43 6.1 52 52 N 5 7 30.30 1026 10 16 0.00 0.00
11:53 am 11:53 Sunny 62 16.7 43 6.1 50 50 N 6 9 30.29 1026 10 16 0.00 0.00
12:53 pm 12:53 Mostly Sunny 63 17.2 41 5 45 45 E 6 9 30.28 1026 10 16 0.00 0.00
1:53 pm 13:53 Sunny 64 17.8 41 5 43 43 VRB 3 6 30.27 1025 10 16 0.00 0.00
2:53 pm 14:53 Sunny 66 18.9 40 4.4 39 39 Calm 30.27 1025 10 16 0.00 0.00
3:53 pm 15:53 Sunny 67 19.4 39 3.9 36 36 Calm 30.24 1024 10 16 0.00 0.00
4:53 pm 16:53 Sunny 69 20.6 36 2.2 30 30 Calm 30.24 1024 10 16 0.00 0.00
5:53 pm 17:53 Sunny 68 20 36 2.2 31 31 VRB 3 6 30.23 1024 10 16 0.00 0.00
6:53 pm 18:53 Sunny 67 19.4 37 2.8 33 33 S 3 6 30.22 1023 10 16 0.00 0.00
7:53 pm 19:53 Sunny 62 16.7 43 6.1 50 50 SE 3 6 30.22 1023 10 16 0.00 0.00
8:53 pm 20:53 Clear 57 13.9 45 7.2 64 64 Calm 30.24 1024 10 16 0.00 0.00
9:53 pm 21:53 Clear 52 11.1 46 7.8 80 80 NNE 8 13 30.26 1025 10 16 0.00 0.00
10:53 pm 22:53 Clear 54 12.2 44 6.7 69 69 NNW 6 9 30.27 1025 10 16 0.00 0.00
11:53 pm 23:53 Clear 52 11.1 44 6.7 75 75 NNW 5 7 30.27 1025 10 16 0.00 0.00

Powered by AerisWeather